Погода в Бишкуле

Казахстан     54°46′22″N   69°06′08″E
темп.,
°C
ветер,
м/с
пор.,
м/с
влажн.,
%
обл.,
%
осадки,
мм/ч
давл.,
гПа
погр.,
м
21 июня, пн
пн2100:00+10ссз81561100 0.0 10051296
03:00+7сз81288100 0.2 10061217
06:00+8ссз91388100 1.0 1006983
09:00+8ссз91694100 0.6 10071091
12:00+12ссз10158499 0.8 10111150
15:00+19с9134799 0.2 10122357
18:00+18ссз9105694 0.4 10141684
21:00+14с6118257 1.1 1016446
22 июня, вт
вт2200:00+10ссз4109584 1.6 1018265
03:00+10ссз3790100 0.0 1018163
06:00+9ссз369210 0.0 1019148
09:00+14сз346717 0.0 1019526
12:00+17ссз554674 0.1 10182174
15:00+18сз4543100 0.0 10182272
18:00+17сз3454100 0.1 10171284
21:00+14з2266100 0.1 101633
23 июня, ср
ср2300:00+12ссв1187100 0.5 101511
03:00+11зсз119191 0.4 101415
06:00+11с4893100 0.4 1013267
09:00+13св587534 0.1 1014942
12:00+16ссв785829 0.8 10141678
15:00+15с685399 0.2 10161793
18:00+15с5762100 0.3 10161151
21:00+11ссв4981100 0.4 1016447
24 июня, чт
чт2400:00+9с348878 0.6 101779
03:00+8ссз3582100 0.0 1016107
06:00+9ссз3118283 0.0 1016709
09:00+12с5767100 0.0 10161028
12:00+10с3589100 1.1 1016377
15:00+13ссз597067 0.7 10161209
18:00+14с696195 0.9 10161427
21:00+12с36735 0.0 1016170
25 июня, пт
пт2500:00+7св2287100 0.0 101612
03:00+6ссз118896 0.0 101610
06:00+7зсз0088100 0.0 101610
09:00+12юв2268100 0.0 1016411
12:00+16ю334943 0.0 10151224
15:00+19юз334285 0.0 10141597
18:00+20з12418 0.0 10121588
21:00+16юв22575 0.0 101213